Time,TemperatureF,DewpointF,PressureIn,WindDirection,WindDirectionDegrees,WindSpeedMPH,WindSpeedGustMPH,Humidity,HourlyPrecipIn,Conditions,Clouds,dailyrainin,SoftwareType,DateUTC
2013-03-25 00:05:00,72.3,72.0,29.82,South,173,0.0,4.0,98,0.00,,,0.00,weatherlink.com 1.10,2013-03-25 04:05:00,
2013-03-25 00:19:00,72.3,72.0,29.82,SW,214,0.0,4.0,98,0.00,,,0.00,weatherlink.com 1.10,2013-03-25 04:19:00,
2013-03-25 00:35:00,72.3,72.0,29.82,SW,214,1.0,4.0,98,0.00,,,0.00,weatherlink.com 1.10,2013-03-25 04:35:00,
2013-03-25 00:49:00,72.3,72.0,29.81,SW,225,0.0,2.0,98,0.00,,,0.00,weatherlink.com 1.10,2013-03-25 04:49:00,
2013-03-25 01:05:00,72.3,72.0,29.81,SSE,155,0.0,4.0,98,0.00,,,0.00,weatherlink.com 1.10,2013-03-25 05:05:00,
2013-03-25 01:19:00,72.4,72.0,29.81,SW,218,1.0,4.0,98,0.00,,,0.00,weatherlink.com 1.10,2013-03-25 05:19:00,
2013-03-25 01:35:00,72.6,72.0,29.81,SW,228,3.0,6.0,98,0.00,,,0.00,weatherlink.com 1.10,2013-03-25 05:35:00,
2013-03-25 01:50:00,72.7,72.0,29.81,SW,229,4.0,8.0,97,0.00,,,0.00,weatherlink.com 1.10,2013-03-25 05:50:00,
2013-03-25 02:06:00,73.0,72.0,29.80,WSW,252,3.0,7.0,97,0.00,,,0.00,weatherlink.com 1.10,2013-03-25 06:06:00,
2013-03-25 02:20:00,73.1,72.0,29.81,WSW,245,6.0,8.0,97,0.00,,,0.00,weatherlink.com 1.10,2013-03-25 06:20:00,
2013-03-25 02:36:00,73.3,72.0,29.80,SW,225,3.0,5.0,97,0.00,,,0.00,weatherlink.com 1.10,2013-03-25 06:36:00,
2013-03-25 02:50:00,73.4,73.0,29.80,WSW,248,5.0,7.0,97,0.00,,,0.00,weatherlink.com 1.10,2013-03-25 06:50:00,
2013-03-25 03:06:00,73.6,73.0,29.80,WSW,248,2.0,9.0,97,0.00,,,0.00,weatherlink.com 1.10,2013-03-25 07:06:00,
2013-03-25 03:20:00,73.5,73.0,29.80,SW,235,3.0,7.0,97,0.00,,,0.00,weatherlink.com 1.10,2013-03-25 07:20:00,
2013-03-25 03:36:00,73.4,73.0,29.80,WSW,249,5.0,7.0,97,0.00,,,0.00,weatherlink.com 1.10,2013-03-25 07:36:00,
2013-03-25 03:50:00,73.4,73.0,29.80,WSW,242,5.0,6.0,97,0.00,,,0.00,weatherlink.com 1.10,2013-03-25 07:50:00,
2013-03-25 04:06:00,73.5,73.0,29.80,West,279,3.0,3.0,97,0.00,,,0.00,weatherlink.com 1.10,2013-03-25 08:06:00,
2013-03-25 04:21:00,73.5,73.0,29.80,West,272,2.0,4.0,97,0.00,,,0.00,weatherlink.com 1.10,2013-03-25 08:21:00,
2013-03-25 04:36:00,73.5,73.0,29.80,West,276,2.0,8.0,97,0.00,,,0.00,weatherlink.com 1.10,2013-03-25 08:36:00,
2013-03-25 04:51:00,73.1,72.0,29.80,WNW,283,7.0,14.0,96,0.01,,,0.01,weatherlink.com 1.10,2013-03-25 08:51:00,
2013-03-25 05:07:00,72.8,71.0,29.80,West,278,5.0,11.0,95,0.01,,,0.01,weatherlink.com 1.10,2013-03-25 09:07:00,
2013-03-25 05:21:00,72.5,71.0,29.80,WSW,253,5.0,8.0,95,0.01,,,0.01,weatherlink.com 1.10,2013-03-25 09:21:00,
2013-03-25 05:37:00,72.2,71.0,29.80,West,271,3.0,5.0,95,0.01,,,0.01,weatherlink.com 1.10,2013-03-25 09:37:00,
2013-03-25 05:51:00,72.0,71.0,29.80,West,259,0.0,2.0,95,0.00,,,0.01,weatherlink.com 1.10,2013-03-25 09:51:00,
2013-03-25 06:07:00,71.6,70.0,29.80,SW,235,0.0,1.0,95,0.00,,,0.01,weatherlink.com 1.10,2013-03-25 10:07:00,
2013-03-25 06:21:00,71.3,70.0,29.80,SW,233,0.0,0.0,95,0.00,,,0.01,weatherlink.com 1.10,2013-03-25 10:21:00,
2013-03-25 06:37:00,71.0,70.0,29.81,WSW,257,0.0,0.0,96,0.00,,,0.01,weatherlink.com 1.10,2013-03-25 10:37:00,
2013-03-25 06:52:00,70.6,68.0,29.81,WSW,257,5.0,14.0,92,0.00,,,0.01,weatherlink.com 1.10,2013-03-25 10:52:00,
2013-03-25 07:07:00,70.9,68.0,29.82,WNW,298,3.0,7.0,91,0.00,,,0.01,weatherlink.com 1.10,2013-03-25 11:07:00,
2013-03-25 07:22:00,70.4,68.0,29.82,WNW,290,3.0,3.0,92,0.00,,,0.01,weatherlink.com 1.10,2013-03-25 11:22:00,
2013-03-25 07:36:00,69.7,66.0,29.84,WNW,291,6.0,9.0,89,0.00,,,0.01,weatherlink.com 1.10,2013-03-25 11:36:00,
2013-03-25 07:52:00,69.6,65.0,29.85,WNW,284,7.0,12.0,86,0.00,,,0.01,weatherlink.com 1.10,2013-03-25 11:52:00,
2013-03-25 08:07:00,69.5,65.0,29.86,WNW,290,4.0,8.0,84,0.00,,,0.01,weatherlink.com 1.10,2013-03-25 12:07:00,
2013-03-25 08:37:00,69.6,65.0,29.88,WNW,297,4.0,10.0,84,0.00,,,0.01,weatherlink.com 1.10,2013-03-25 12:37:00,
2013-03-25 08:54:00,69.5,64.0,29.89,WSW,257,5.0,8.0,83,0.00,,,0.01,weatherlink.com 1.10,2013-03-25 12:54:00,
2013-03-25 09:23:00,69.7,64.0,29.91,WNW,294,5.0,11.0,81,0.00,,,0.01,weatherlink.com 1.10,2013-03-25 13:23:00,
2013-03-25 09:37:00,69.8,63.0,29.92,WNW,293,8.0,14.0,79,0.00,,,0.01,weatherlink.com 1.10,2013-03-25 13:37:00,
2013-03-25 09:53:00,70.6,63.0,29.92,WNW,286,7.0,11.0,77,0.00,,,0.01,weatherlink.com 1.10,2013-03-25 13:53:00,
2013-03-25 10:08:00,71.0,63.0,29.92,West,262,8.0,9.0,75,0.00,,,0.01,weatherlink.com 1.10,2013-03-25 14:08:00,
2013-03-25 10:24:00,70.8,63.0,29.93,NNW,338,5.0,11.0,77,0.00,,,0.01,weatherlink.com 1.10,2013-03-25 14:24:00,
2013-03-25 10:38:00,70.6,62.0,29.93,WNW,283,4.0,10.0,75,0.00,,,0.01,weatherlink.com 1.10,2013-03-25 14:38:00,
2013-03-25 10:53:00,70.9,63.0,29.93,WNW,300,4.0,11.0,75,0.00,,,0.01,weatherlink.com 1.10,2013-03-25 14:53:00,
2013-03-25 11:08:00,71.0,63.0,29.93,WNW,295,3.0,10.0,76,0.00,,,0.01,weatherlink.com 1.10,2013-03-25 15:08:00,
2013-03-25 11:23:00,71.3,62.0,29.93,WNW,285,6.0,11.0,73,0.00,,,0.01,weatherlink.com 1.10,2013-03-25 15:23:00,
2013-03-25 11:38:00,71.4,63.0,29.94,WNW,283,4.0,10.0,74,0.00,,,0.01,weatherlink.com 1.10,2013-03-25 15:38:00,
2013-03-25 11:53:00,71.6,62.0,29.93,WNW,294,8.0,12.0,71,0.00,,,0.01,weatherlink.com 1.10,2013-03-25 15:53:00,
2013-03-25 12:09:00,73.4,63.0,29.92,NW,326,3.0,13.0,69,0.00,,,0.01,weatherlink.com 1.10,2013-03-25 16:09:00,
2013-03-25 12:23:00,74.3,62.0,29.93,West,280,9.0,11.0,65,0.00,,,0.01,weatherlink.com 1.10,2013-03-25 16:23:00,
2013-03-25 12:38:00,74.1,59.0,29.93,NW,323,10.0,14.0,59,0.00,,,0.01,weatherlink.com 1.10,2013-03-25 16:38:00,
2013-03-25 12:54:00,74.9,58.0,29.93,WNW,290,8.0,12.0,56,0.00,,,0.01,weatherlink.com 1.10,2013-03-25 16:54:00,
2013-03-25 13:24:00,75.6,55.0,29.92,West,266,5.0,13.0,49,0.00,,,0.01,weatherlink.com 1.10,2013-03-25 17:24:00,
2013-03-25 13:39:00,76.2,56.0,29.92,WNW,290,10.0,11.0,49,0.00,,,0.01,weatherlink.com 1.10,2013-03-25 17:39:00,
2013-03-25 13:55:00,76.4,53.0,29.92,WNW,288,9.0,13.0,45,0.00,,,0.01,weatherlink.com 1.10,2013-03-25 17:55:00,
2013-03-25 14:09:00,77.0,53.0,29.91,WNW,285,6.0,10.0,44,0.00,,,0.01,weatherlink.com 1.10,2013-03-25 18:09:00,
2013-03-25 14:25:00,76.9,56.0,29.91,WNW,294,5.0,12.0,48,0.00,,,0.01,weatherlink.com 1.10,2013-03-25 18:25:00,
2013-03-25 14:40:00,77.6,60.0,29.91,WNW,301,2.0,9.0,54,0.00,,,0.01,weatherlink.com 1.10,2013-03-25 18:40:00,
2013-03-25 14:54:00,78.0,57.0,29.91,NW,308,5.0,9.0,48,0.00,,,0.01,weatherlink.com 1.10,2013-03-25 18:54:00,
2013-03-25 15:10:00,77.7,57.0,29.90,WSW,238,5.0,15.0,49,0.00,,,0.01,weatherlink.com 1.10,2013-03-25 19:10:00,
2013-03-25 15:25:00,77.9,56.0,29.89,WNW,299,1.0,6.0,47,0.00,,,0.01,weatherlink.com 1.10,2013-03-25 19:25:00,
2013-03-25 15:39:00,78.0,54.0,29.90,WNW,288,3.0,10.0,44,0.00,,,0.01,weatherlink.com 1.10,2013-03-25 19:39:00,
2013-03-25 15:55:00,77.4,54.0,29.90,West,270,6.0,12.0,45,0.00,,,0.01,weatherlink.com 1.10,2013-03-25 19:55:00,
2013-03-25 16:09:00,77.2,55.0,29.89,WNW,290,5.0,12.0,47,0.00,,,0.01,weatherlink.com 1.10,2013-03-25 20:09:00,
2013-03-25 16:25:00,77.3,55.0,29.89,NW,305,0.0,6.0,47,0.00,,,0.01,weatherlink.com 1.10,2013-03-25 20:25:00,
2013-03-25 16:41:00,77.6,55.0,29.89,WNW,287,5.0,9.0,45,0.00,,,0.01,weatherlink.com 1.10,2013-03-25 20:41:00,
2013-03-25 16:55:00,76.8,54.0,29.89,WNW,293,6.0,11.0,46,0.00,,,0.01,weatherlink.com 1.10,2013-03-25 20:55:00,
2013-03-25 17:11:00,76.6,54.0,29.90,WNW,299,6.0,9.0,46,0.00,,,0.01,weatherlink.com 1.10,2013-03-25 21:11:00,
2013-03-25 17:25:00,76.1,54.0,29.91,West,269,6.0,9.0,46,0.00,,,0.01,weatherlink.com 1.10,2013-03-25 21:25:00,
2013-03-25 17:55:00,75.9,42.0,29.92,West,266,8.0,13.0,30,0.00,,,0.01,weatherlink.com 1.10,2013-03-25 21:55:00,
2013-03-25 18:11:00,75.3,43.0,29.93,WNW,283,7.0,12.0,31,0.00,,,0.01,weatherlink.com 1.10,2013-03-25 22:11:00,
2013-03-25 18:25:00,74.7,44.0,29.93,WNW,283,4.0,12.0,33,0.00,,,0.01,weatherlink.com 1.10,2013-03-25 22:25:00,
2013-03-25 18:56:00,74.2,44.0,29.94,West,267,7.0,8.0,34,0.00,,,0.01,weatherlink.com 1.10,2013-03-25 22:56:00,
2013-03-25 19:11:00,74.0,45.0,29.95,WNW,283,3.0,11.0,35,0.00,,,0.01,weatherlink.com 1.10,2013-03-25 23:11:00,
2013-03-25 19:26:00,73.7,45.0,29.95,West,266,2.0,8.0,36,0.00,,,0.01,weatherlink.com 1.10,2013-03-25 23:26:00,
2013-03-25 19:56:00,72.6,41.0,29.97,WNW,288,4.0,9.0,32,0.00,,,0.01,weatherlink.com 1.10,2013-03-25 23:56:00,
2013-03-25 20:26:00,71.0,43.0,29.98,WNW,287,4.0,10.0,36,0.00,,,0.01,weatherlink.com 1.10,2013-03-26 00:26:00,
2013-03-25 20:41:00,69.9,44.0,29.99,WNW,290,3.0,9.0,39,0.00,,,0.01,weatherlink.com 1.10,2013-03-26 00:41:00,
2013-03-25 20:56:00,69.2,42.0,29.99,West,266,3.0,8.0,38,0.00,,,0.01,weatherlink.com 1.10,2013-03-26 00:56:00,
2013-03-25 21:11:00,68.6,40.0,30.00,NW,304,3.0,8.0,36,0.00,,,0.01,weatherlink.com 1.10,2013-03-26 01:11:00,
2013-03-25 21:27:00,67.8,40.0,30.01,WNW,288,2.0,7.0,36,0.00,,,0.01,weatherlink.com 1.10,2013-03-26 01:27:00,
2013-03-25 21:41:00,67.3,39.0,30.01,West,281,2.0,5.0,36,0.00,,,0.01,weatherlink.com 1.10,2013-03-26 01:41:00,
2013-03-25 21:57:00,67.1,38.0,30.02,WNW,290,5.0,7.0,35,0.00,,,0.01,weatherlink.com 1.10,2013-03-26 01:57:00,
2013-03-25 22:11:00,66.9,38.0,30.03,WNW,290,5.0,9.0,34,0.00,,,0.01,weatherlink.com 1.10,2013-03-26 02:11:00,
2013-03-25 22:28:00,65.8,40.0,30.03,WNW,288,2.0,4.0,39,0.00,,,0.01,weatherlink.com 1.10,2013-03-26 02:28:00,
2013-03-25 22:42:00,65.2,39.0,30.04,West,267,2.0,4.0,39,0.00,,,0.01,weatherlink.com 1.10,2013-03-26 02:42:00,
2013-03-25 22:56:00,65.6,39.0,30.04,WNW,285,4.0,7.0,38,0.00,,,0.01,weatherlink.com 1.10,2013-03-26 02:56:00,
2013-03-25 23:12:00,65.4,41.0,30.05,WSW,256,7.0,10.0,41,0.00,,,0.01,weatherlink.com 1.10,2013-03-26 03:12:00,
2013-03-25 23:27:00,64.3,43.0,30.05,WNW,293,4.0,8.0,46,0.00,,,0.01,weatherlink.com 1.10,2013-03-26 03:27:00,
2013-03-25 23:43:00,63.6,43.0,30.05,WNW,285,4.0,10.0,48,0.00,,,0.01,weatherlink.com 1.10,2013-03-26 03:43:00,
2013-03-25 23:57:00,62.9,43.0,30.05,NW,311,6.0,8.0,48,0.00,,,0.01,weatherlink.com 1.10,2013-03-26 03:57:00,